FFT3284 KPHX-KDFW

Flight info

Callsign FFT3284
Flight time 2h 4m
Altitude 37000
Route ECLPS1 PHASE EWM J4 INK GEEKY SHMPP3
Aircraft A320/M-SDE3FGHIRWY/LB1

Departure

Time 2026-05-07 23:23
Airport Phoenix Sky Harbor International Airport (KPHX)

Arrival

Time 2026-05-08 01:27
Airport Dallas Fort Worth International Airport (KDFW)
Time Latitude Longitude Altitude Speed Heading
2026-05-07 22:38 33.43450 -112.00784 1125 ft 0 kts 300°
2026-05-07 23:12 33.43447 -112.00777 1114 ft 4 kts 301°
2026-05-07 23:12 33.43431 -112.00754 1119 ft 4 kts 342°
2026-05-07 23:12 33.43412 -112.00751 1117 ft 4 kts 336°
2026-05-07 23:12 33.43402 -112.00741 1124 ft 4 kts 236°
2026-05-07 23:13 33.43421 -112.00731 1116 ft 4 kts 180°
2026-05-07 23:13 33.43430 -112.00731 1124 ft 0 kts 180°
2026-05-07 23:16 33.43421 -112.00731 1124 ft 5 kts 180°
2026-05-07 23:16 33.43370 -112.00731 1117 ft 7 kts 180°
2026-05-07 23:17 33.43326 -112.00730 1119 ft 6 kts 179°
2026-05-07 23:17 33.43292 -112.00738 1118 ft 4 kts 206°
2026-05-07 23:17 33.43273 -112.00749 1125 ft 3 kts 203°
2026-05-07 23:17 33.43223 -112.00750 1126 ft 6 kts 151°
2026-05-07 23:18 33.43214 -112.00706 1120 ft 8 kts 90°
2026-05-07 23:18 33.43214 -112.00595 1117 ft 17 kts 90°
2026-05-07 23:18 33.43214 -112.00452 1127 ft 18 kts 90°
2026-05-07 23:18 33.43215 -112.00322 1117 ft 10 kts 89°
2026-05-07 23:19 33.43215 -112.00247 1120 ft 10 kts 90°
2026-05-07 23:19 33.43214 -112.00130 1127 ft 17 kts 90°
2026-05-07 23:19 33.43214 -111.99989 1119 ft 17 kts 90°
2026-05-07 23:19 33.43215 -111.99840 1121 ft 18 kts 89°
2026-05-07 23:20 33.43215 -111.99700 1127 ft 16 kts 90°
2026-05-07 23:20 33.43214 -111.99569 1124 ft 16 kts 90°
2026-05-07 23:20 33.43214 -111.99441 1122 ft 15 kts 90°
2026-05-07 23:20 33.43208 -111.99353 1127 ft 5 kts 119°
2026-05-07 23:21 33.43192 -111.99342 1128 ft 1 kts 162°
2026-05-07 23:21 33.43168 -111.99343 1130 ft 6 kts 182°
2026-05-07 23:21 33.43128 -111.99344 1134 ft 4 kts 181°
2026-05-07 23:21 33.43104 -111.99368 1132 ft 5 kts 263°
2026-05-07 23:22 33.43104 -111.99391 1133 ft 0 kts 271°
2026-05-07 23:22 33.43104 -111.99395 1132 ft 4 kts 270°
2026-05-07 23:22 33.43105 -111.99678 1132 ft 73 kts 270°
2026-05-07 23:23 33.43106 -112.00584 1131 ft 141 kts 270°
2026-05-07 23:23 33.43109 -112.01970 1267 ft 182 kts 270°
2026-05-07 23:23 33.43076 -112.03506 2046 ft 188 kts 267°
2026-05-07 23:23 33.42955 -112.05094 2814 ft 195 kts 267°
2026-05-07 23:24 33.42853 -112.06766 3106 ft 213 kts 267°
2026-05-07 23:24 33.42587 -112.08565 3368 ft 228 kts 251°
2026-05-07 23:24 33.42022 -112.10441 3554 ft 252 kts 249°
2026-05-07 23:24 33.41365 -112.12482 3907 ft 271 kts 248°
2026-05-07 23:25 33.40660 -112.14619 4538 ft 278 kts 249°
2026-05-07 23:25 33.39911 -112.16764 5304 ft 280 kts 241°
2026-05-07 23:25 33.38712 -112.18551 6032 ft 282 kts 217°
2026-05-07 23:25 33.36889 -112.19476 6695 ft 286 kts 185°
2026-05-07 23:26 33.34922 -112.19165 7357 ft 289 kts 160°
2026-05-07 23:26 33.33065 -112.18190 8002 ft 293 kts 153°
2026-05-07 23:26 33.31246 -112.17085 8749 ft 295 kts 152°
2026-05-07 23:26 33.29506 -112.15786 9390 ft 297 kts 140°
2026-05-07 23:27 33.26543 -112.12292 10461 ft 315 kts 133°
2026-05-07 23:27 33.24982 -112.10286 10620 ft 336 kts 127°
2026-05-07 23:27 33.23732 -112.07886 11048 ft 345 kts 114°
2026-05-07 23:28 33.22923 -112.05211 11665 ft 349 kts 107°
2026-05-07 23:28 33.22184 -112.02443 12372 ft 351 kts 106°
2026-05-07 23:28 33.21452 -111.99655 13088 ft 353 kts 106°
2026-05-07 23:28 33.20722 -111.96852 13770 ft 355 kts 106°
2026-05-07 23:29 33.19989 -111.94027 14461 ft 357 kts 106°
2026-05-07 23:29 33.19248 -111.91189 15121 ft 359 kts 107°
2026-05-07 23:29 33.18499 -111.88335 15764 ft 362 kts 107°
2026-05-07 23:29 33.17743 -111.85459 16398 ft 364 kts 107°
2026-05-07 23:30 33.16980 -111.82565 16992 ft 366 kts 107°
2026-05-07 23:30 33.16212 -111.79659 17576 ft 368 kts 107°
2026-05-07 23:30 33.15439 -111.76736 18163 ft 370 kts 107°
2026-05-07 23:30 33.14662 -111.73796 18721 ft 372 kts 107°
2026-05-07 23:31 33.13883 -111.70839 19262 ft 375 kts 107°
2026-05-07 23:31 33.13099 -111.67865 19776 ft 377 kts 107°
2026-05-07 23:31 33.12307 -111.64872 20311 ft 379 kts 106°
2026-05-07 23:31 33.11511 -111.61864 20792 ft 382 kts 106°
2026-05-07 23:32 33.10708 -111.58839 21273 ft 384 kts 106°
2026-05-07 23:32 33.09894 -111.55788 21743 ft 386 kts 106°
2026-05-07 23:32 33.09077 -111.52727 22191 ft 388 kts 106°
2026-05-07 23:32 33.08256 -111.49649 22618 ft 391 kts 106°
2026-05-07 23:33 33.07418 -111.46556 23046 ft 394 kts 109°
2026-05-07 23:33 33.06248 -111.43592 23456 ft 398 kts 119°
2026-05-07 23:33 33.04740 -111.40813 23854 ft 400 kts 121°
2026-05-07 23:33 33.03210 -111.38034 24247 ft 403 kts 121°
2026-05-07 23:34 33.01671 -111.35234 24630 ft 405 kts 121°
2026-05-07 23:34 33.00144 -111.32454 24978 ft 408 kts 121°
2026-05-07 23:34 32.98589 -111.29619 25333 ft 409 kts 121°
2026-05-07 23:34 32.97029 -111.26771 25660 ft 412 kts 121°
2026-05-07 23:35 32.95460 -111.23905 25989 ft 415 kts 121°
2026-05-07 23:35 32.93877 -111.21021 26316 ft 417 kts 121°
2026-05-07 23:35 32.92282 -111.18120 26651 ft 419 kts 121°
2026-05-07 23:35 32.90681 -111.15208 26964 ft 421 kts 121°
2026-05-07 23:36 32.89070 -111.12282 27272 ft 424 kts 122°
2026-05-07 23:36 32.87449 -111.09348 27576 ft 425 kts 122°
2026-05-07 23:36 32.85817 -111.06401 27871 ft 428 kts 122°
2026-05-07 23:36 32.84178 -111.03436 28174 ft 430 kts 122°
2026-05-07 23:37 32.82530 -111.00456 28465 ft 432 kts 122°
2026-05-07 23:37 32.80874 -110.97465 28739 ft 434 kts 122°
2026-05-07 23:37 32.79207 -110.94458 29017 ft 436 kts 122°
2026-05-07 23:37 32.77535 -110.91440 29280 ft 438 kts 122°
2026-05-07 23:38 32.75853 -110.88406 29538 ft 440 kts 123°
2026-05-07 23:38 32.74184 -110.85401 29782 ft 442 kts 123°
2026-05-07 23:38 32.72484 -110.82343 30032 ft 444 kts 123°
2026-05-07 23:38 32.70779 -110.79271 30269 ft 446 kts 123°
2026-05-07 23:39 32.69066 -110.76189 30505 ft 448 kts 123°
2026-05-07 23:39 32.67342 -110.73099 30729 ft 450 kts 124°
2026-05-07 23:39 32.65639 -110.69978 30947 ft 452 kts 120°
2026-05-07 23:39 32.64283 -110.66609 31232 ft 453 kts 111°
2026-05-07 23:40 32.63377 -110.63026 31495 ft 455 kts 105°
2026-05-07 23:40 32.62589 -110.59387 31751 ft 456 kts 106°
2026-05-07 23:40 32.61791 -110.55749 32003 ft 456 kts 107°
2026-05-07 23:40 32.60984 -110.52108 32253 ft 457 kts 107°
2026-05-07 23:41 32.60172 -110.48458 32511 ft 458 kts 107°
2026-05-07 23:41 32.59356 -110.44806 32780 ft 458 kts 107°
2026-05-07 23:41 32.58538 -110.41152 33027 ft 459 kts 108°
2026-05-07 23:41 32.57720 -110.37486 33270 ft 460 kts 108°
2026-05-07 23:42 32.56903 -110.33816 33509 ft 461 kts 108°
2026-05-07 23:42 32.56085 -110.30142 33753 ft 462 kts 108°
2026-05-07 23:42 32.55265 -110.26455 33993 ft 462 kts 108°
2026-05-07 23:42 32.54444 -110.22770 34226 ft 463 kts 108°
2026-05-07 23:43 32.53618 -110.19073 34465 ft 463 kts 109°
2026-05-07 23:43 32.52793 -110.15386 34699 ft 463 kts 109°
2026-05-07 23:43 32.51966 -110.11696 34924 ft 464 kts 109°
2026-05-07 23:43 32.51135 -110.08005 35164 ft 464 kts 109°
2026-05-07 23:44 32.50302 -110.04313 35392 ft 463 kts 109°
2026-05-07 23:44 32.49468 -110.00624 35629 ft 463 kts 109°
2026-05-07 23:44 32.48635 -109.96938 35826 ft 463 kts 110°
2026-05-07 23:44 32.47797 -109.93250 35995 ft 464 kts 110°
2026-05-07 23:45 32.46956 -109.89557 36179 ft 465 kts 110°
2026-05-07 23:45 32.46118 -109.85864 36373 ft 465 kts 110°
2026-05-07 23:45 32.45280 -109.82171 36578 ft 464 kts 110°
2026-05-07 23:45 32.44456 -109.78535 36775 ft 463 kts 110°
2026-05-07 23:46 32.43681 -109.74779 36973 ft 465 kts 105°
2026-05-07 23:46 32.43191 -109.70996 37017 ft 464 kts 103°
2026-05-07 23:46 32.42258 -109.63526 37017 ft 461 kts 103°
2026-05-07 23:47 32.41316 -109.56029 37007 ft 460 kts 104°
2026-05-07 23:47 32.40362 -109.48534 37008 ft 461 kts 104°
2026-05-07 23:48 32.39394 -109.41034 37008 ft 461 kts 104°
2026-05-07 23:48 32.38433 -109.33530 37007 ft 461 kts 104°
2026-05-07 23:49 32.37467 -109.26020 37004 ft 461 kts 104°
2026-05-07 23:49 32.36486 -109.18519 36998 ft 461 kts 104°
2026-05-07 23:50 32.35505 -109.11015 36995 ft 462 kts 104°
2026-05-07 23:50 32.34526 -109.03494 36997 ft 463 kts 104°
2026-05-07 23:51 32.33536 -108.95960 36996 ft 464 kts 104°
2026-05-07 23:51 32.32546 -108.88409 36998 ft 465 kts 104°
2026-05-07 23:52 32.31553 -108.80890 36996 ft 466 kts 105°
2026-05-07 23:52 32.30539 -108.73310 36995 ft 467 kts 105°
2026-05-07 23:53 32.29514 -108.65715 36995 ft 469 kts 105°
2026-05-07 23:53 32.28489 -108.58087 36996 ft 471 kts 105°
2026-05-07 23:54 32.27459 -108.50442 37000 ft 472 kts 106°
2026-05-07 23:54 32.26425 -108.42782 37004 ft 473 kts 106°
2026-05-07 23:55 32.25381 -108.35105 37007 ft 473 kts 107°
2026-05-07 23:55 32.24326 -108.27420 37014 ft 474 kts 107°
2026-05-07 23:56 32.23443 -108.21021 37020 ft 475 kts 107°
2026-05-07 23:56 32.22371 -108.13306 37024 ft 477 kts 107°
2026-05-07 23:57 32.21298 -108.05576 37038 ft 477 kts 107°
2026-05-07 23:57 32.20222 -107.97835 37031 ft 478 kts 107°
2026-05-07 23:58 32.19142 -107.90095 37032 ft 478 kts 107°
2026-05-07 23:58 32.18055 -107.82340 37033 ft 479 kts 107°
2026-05-07 23:59 32.16956 -107.74589 37038 ft 479 kts 107°
2026-05-07 23:59 32.15858 -107.66881 37039 ft 479 kts 107°
2026-05-08 00:00 32.14755 -107.59118 37034 ft 479 kts 107°
2026-05-08 00:00 32.13648 -107.51363 37034 ft 479 kts 108°
2026-05-08 00:01 32.12525 -107.43605 37039 ft 480 kts 108°
2026-05-08 00:01 32.11401 -107.35849 37032 ft 480 kts 108°
2026-05-08 00:02 32.10270 -107.28078 37041 ft 480 kts 108°
2026-05-08 00:02 32.09141 -107.20307 37042 ft 480 kts 108°
2026-05-08 00:03 32.08004 -107.12545 37045 ft 481 kts 107°
2026-05-08 00:03 32.06856 -107.04776 37055 ft 481 kts 107°
2026-05-08 00:04 32.05714 -106.97014 37049 ft 481 kts 108°
2026-05-08 00:04 32.04565 -106.89248 37046 ft 481 kts 108°
2026-05-08 00:05 32.03419 -106.81526 37034 ft 482 kts 108°
2026-05-08 00:05 32.02248 -106.73747 37030 ft 483 kts 108°
2026-05-08 00:06 32.01070 -106.65954 37022 ft 484 kts 109°
2026-05-08 00:06 31.99887 -106.58139 37016 ft 485 kts 109°
2026-05-08 00:07 31.98699 -106.50305 37003 ft 486 kts 110°
2026-05-08 00:07 31.97504 -106.42454 36991 ft 488 kts 110°
2026-05-08 00:08 31.96301 -106.34585 36991 ft 489 kts 110°
2026-05-08 00:08 31.95209 -106.26650 36989 ft 498 kts 102°
2026-05-08 00:09 31.95055 -106.18431 36988 ft 503 kts 99°
2026-05-08 00:09 31.94921 -106.10198 36991 ft 503 kts 99°
2026-05-08 00:10 31.94780 -106.01956 36999 ft 504 kts 99°
2026-05-08 00:10 31.94629 -105.93705 37007 ft 504 kts 99°
2026-05-08 00:11 31.94482 -105.85461 37012 ft 504 kts 99°
2026-05-08 00:11 31.94337 -105.77204 37010 ft 504 kts 99°
2026-05-08 00:12 31.94183 -105.68951 37007 ft 504 kts 100°
2026-05-08 00:12 31.94016 -105.60692 37002 ft 504 kts 100°
2026-05-08 00:13 31.93843 -105.52439 36996 ft 504 kts 100°
2026-05-08 00:13 31.93671 -105.44179 36993 ft 505 kts 100°
2026-05-08 00:14 31.93499 -105.35902 36992 ft 506 kts 100°
2026-05-08 00:14 31.93323 -105.27676 36996 ft 506 kts 100°
2026-05-08 00:15 31.93139 -105.19392 36995 ft 507 kts 100°
2026-05-08 00:15 31.92956 -105.11087 36999 ft 508 kts 100°
2026-05-08 00:16 31.92769 -105.02771 37005 ft 508 kts 100°
2026-05-08 00:16 31.92580 -104.94451 37003 ft 509 kts 100°
2026-05-08 00:17 31.92384 -104.86125 37006 ft 509 kts 100°
2026-05-08 00:17 31.92182 -104.77795 37006 ft 509 kts 101°
2026-05-08 00:18 31.91975 -104.69447 37005 ft 510 kts 101°
2026-05-08 00:18 31.91759 -104.61089 37007 ft 512 kts 101°
2026-05-08 00:19 31.91540 -104.52700 37004 ft 512 kts 101°
2026-05-08 00:19 31.91314 -104.44306 37013 ft 513 kts 101°
2026-05-08 00:20 31.91079 -104.35897 37020 ft 514 kts 101°
2026-05-08 00:20 31.90842 -104.27486 37022 ft 515 kts 101°
2026-05-08 00:21 31.90598 -104.19057 37025 ft 515 kts 101°
2026-05-08 00:21 31.90349 -104.10634 37030 ft 515 kts 101°
2026-05-08 00:22 31.90106 -104.02206 37030 ft 516 kts 101°
2026-05-08 00:22 31.89842 -103.93773 37032 ft 516 kts 101°
2026-05-08 00:23 31.89568 -103.85396 37044 ft 516 kts 101°
2026-05-08 00:23 31.89290 -103.76957 37037 ft 516 kts 101°
2026-05-08 00:24 31.89018 -103.68524 37047 ft 516 kts 101°
2026-05-08 00:24 31.88740 -103.60091 37045 ft 515 kts 101°
2026-05-08 00:25 31.88454 -103.51672 37046 ft 515 kts 101°
2026-05-08 00:25 31.88153 -103.43254 37047 ft 515 kts 101°
2026-05-08 00:26 31.87851 -103.34846 37028 ft 515 kts 101°
2026-05-08 00:26 31.87559 -103.26430 37024 ft 517 kts 98°
2026-05-08 00:27 31.88346 -103.17898 37023 ft 529 kts 87°
2026-05-08 00:27 31.89504 -103.09338 37020 ft 530 kts 87°
2026-05-08 00:28 31.90635 -103.00766 37022 ft 531 kts 88°
2026-05-08 00:28 31.91746 -102.92243 37021 ft 531 kts 88°
2026-05-08 00:29 31.92872 -102.83642 37022 ft 532 kts 87°
2026-05-08 00:29 31.94003 -102.75033 37024 ft 533 kts 87°
2026-05-08 00:30 31.95131 -102.66403 37029 ft 533 kts 87°
2026-05-08 00:30 31.96242 -102.57766 37035 ft 534 kts 87°
2026-05-08 00:31 31.97347 -102.49111 37040 ft 534 kts 87°
2026-05-08 00:31 31.98441 -102.40451 37035 ft 535 kts 88°
2026-05-08 00:32 31.99549 -102.31781 37043 ft 535 kts 87°
2026-05-08 00:32 32.00659 -102.23103 37041 ft 535 kts 87°
2026-05-08 00:33 32.01743 -102.14481 37036 ft 536 kts 88°
2026-05-08 00:33 32.02829 -102.05792 37042 ft 536 kts 88°
2026-05-08 00:34 32.03907 -101.97097 37033 ft 536 kts 88°
2026-05-08 00:34 32.04971 -101.88404 37038 ft 537 kts 88°
2026-05-08 00:35 32.06033 -101.79694 37041 ft 537 kts 88°
2026-05-08 00:35 32.07103 -101.70991 37050 ft 537 kts 88°
2026-05-08 00:36 32.08166 -101.62286 37046 ft 536 kts 88°
2026-05-08 00:36 32.09203 -101.53628 37043 ft 537 kts 88°
2026-05-08 00:37 32.10240 -101.44919 37043 ft 536 kts 88°
2026-05-08 00:38 32.11801 -101.31859 37032 ft 536 kts 88°
2026-05-08 00:38 32.12825 -101.23142 37039 ft 536 kts 88°
2026-05-08 00:39 32.13848 -101.14439 37035 ft 536 kts 88°
2026-05-08 00:39 32.14862 -101.05730 37040 ft 536 kts 87°
2026-05-08 00:40 32.15879 -100.97015 37051 ft 536 kts 87°
2026-05-08 00:40 32.16890 -100.88297 37059 ft 536 kts 87°
2026-05-08 00:41 32.17882 -100.79586 37068 ft 536 kts 87°
2026-05-08 00:41 32.18855 -100.70936 37072 ft 535 kts 87°
2026-05-08 00:42 32.19848 -100.62214 37075 ft 536 kts 86°
2026-05-08 00:42 32.20842 -100.53502 37082 ft 535 kts 87°
2026-05-08 00:43 32.21805 -100.44795 37078 ft 534 kts 87°
2026-05-08 00:43 32.22764 -100.36097 37081 ft 535 kts 87°
2026-05-08 00:44 32.23735 -100.27390 37081 ft 534 kts 87°
2026-05-08 00:44 32.24685 -100.18693 37080 ft 534 kts 87°
2026-05-08 00:45 32.25470 -100.11466 37081 ft 534 kts 87°
2026-05-08 00:45 32.26415 -100.02768 37071 ft 534 kts 87°
2026-05-08 00:46 32.27355 -99.94063 37064 ft 534 kts 87°
2026-05-08 00:46 32.28236 -99.85354 37062 ft 533 kts 89°
2026-05-08 00:47 32.28759 -99.76643 37052 ft 531 kts 92°
2026-05-08 00:47 32.29095 -99.67938 37049 ft 530 kts 92°
2026-05-08 00:48 32.29482 -99.59224 37051 ft 531 kts 92°
2026-05-08 00:48 32.29936 -99.50514 36993 ft 535 kts 91°
2026-05-08 00:48 32.30173 -99.46078 36745 ft 545 kts 91°
2026-05-08 00:49 32.30411 -99.41593 36495 ft 548 kts 91°
2026-05-08 00:49 32.30645 -99.37103 36245 ft 547 kts 91°
2026-05-08 00:49 32.30875 -99.32629 35997 ft 545 kts 91°
2026-05-08 00:49 32.31103 -99.28163 35746 ft 544 kts 91°
2026-05-08 00:50 32.31323 -99.23692 35492 ft 544 kts 92°
2026-05-08 00:50 32.31540 -99.19226 35248 ft 543 kts 92°
2026-05-08 00:50 32.31754 -99.14778 34997 ft 541 kts 92°
2026-05-08 00:50 32.31965 -99.10352 34747 ft 538 kts 92°
2026-05-08 00:51 32.32173 -99.05947 34499 ft 535 kts 92°
2026-05-08 00:51 32.32381 -99.01575 34250 ft 532 kts 91°
2026-05-08 00:51 32.32586 -98.97219 34001 ft 529 kts 92°
2026-05-08 00:51 32.32788 -98.92890 33742 ft 526 kts 92°
2026-05-08 00:52 32.32988 -98.88637 33502 ft 523 kts 91°
2026-05-08 00:52 32.33190 -98.84360 33006 ft 519 kts 91°
2026-05-08 00:52 32.33392 -98.80054 32437 ft 516 kts 91°
2026-05-08 00:52 32.33587 -98.75880 31897 ft 513 kts 91°
2026-05-08 00:53 32.33784 -98.71678 31356 ft 510 kts 91°
2026-05-08 00:53 32.33977 -98.67502 30816 ft 507 kts 91°
2026-05-08 00:53 32.34165 -98.63353 30283 ft 504 kts 91°
2026-05-08 00:53 32.34350 -98.59238 29762 ft 500 kts 91°
2026-05-08 00:54 32.34530 -98.55143 29242 ft 497 kts 91°
2026-05-08 00:54 32.34705 -98.51070 28723 ft 493 kts 91°
2026-05-08 00:54 32.34878 -98.47031 28214 ft 490 kts 90°
2026-05-08 00:54 32.35050 -98.43019 27713 ft 486 kts 90°
2026-05-08 00:55 32.35223 -98.39040 27238 ft 482 kts 90°
2026-05-08 00:55 32.35394 -98.35094 26751 ft 478 kts 89°
2026-05-08 00:55 32.35561 -98.31194 26291 ft 472 kts 89°
2026-05-08 00:55 32.35724 -98.27337 25834 ft 468 kts 88°
2026-05-08 00:56 32.35884 -98.23516 25355 ft 462 kts 88°
2026-05-08 00:56 32.36042 -98.19744 24912 ft 457 kts 88°
2026-05-08 00:56 32.36195 -98.16003 24446 ft 453 kts 88°
2026-05-08 00:56 32.36342 -98.12302 23982 ft 448 kts 87°
2026-05-08 00:57 32.36482 -98.08632 23500 ft 445 kts 87°
2026-05-08 00:57 32.36618 -98.05040 23038 ft 441 kts 87°
2026-05-08 00:57 32.36758 -98.01432 22557 ft 438 kts 87°
2026-05-08 00:57 32.36901 -97.97843 22081 ft 435 kts 87°
2026-05-08 00:58 32.37041 -97.94278 21606 ft 433 kts 87°
2026-05-08 00:58 32.37182 -97.90729 21127 ft 430 kts 87°
2026-05-08 00:58 32.37321 -97.87206 20646 ft 428 kts 88°
2026-05-08 00:58 32.37457 -97.83695 20159 ft 425 kts 88°
2026-05-08 00:59 32.37591 -97.80208 19679 ft 423 kts 88°
2026-05-08 00:59 32.37725 -97.76742 19209 ft 420 kts 88°
2026-05-08 00:59 32.37857 -97.73297 18735 ft 418 kts 88°
2026-05-08 00:59 32.37988 -97.69870 18262 ft 416 kts 88°
2026-05-08 01:00 32.38257 -97.66481 17801 ft 413 kts 78°
2026-05-08 01:00 32.39091 -97.63250 17344 ft 409 kts 65°
2026-05-08 01:00 32.40474 -97.60333 16873 ft 404 kts 51°
2026-05-08 01:00 32.42317 -97.57865 16410 ft 398 kts 40°
2026-05-08 01:01 32.44312 -97.55603 15953 ft 396 kts 40°
2026-05-08 01:01 32.46289 -97.53352 15516 ft 393 kts 40°
2026-05-08 01:01 32.48256 -97.51111 15078 ft 391 kts 40°
2026-05-08 01:01 32.50204 -97.48891 14644 ft 388 kts 40°
2026-05-08 01:02 32.52141 -97.46670 14209 ft 386 kts 40°
2026-05-08 01:02 32.54059 -97.44470 13782 ft 382 kts 40°
2026-05-08 01:02 32.55937 -97.42315 13351 ft 379 kts 40°
2026-05-08 01:02 32.57820 -97.40153 13053 ft 373 kts 40°
2026-05-08 01:03 32.59655 -97.38047 12901 ft 362 kts 40°
2026-05-08 01:03 32.61450 -97.35987 12612 ft 356 kts 40°
2026-05-08 01:03 32.63221 -97.33958 12360 ft 353 kts 40°
2026-05-08 01:03 32.64976 -97.31950 12134 ft 346 kts 40°
2026-05-08 01:04 32.66683 -97.29993 12036 ft 335 kts 39°
2026-05-08 01:04 32.68322 -97.28110 12061 ft 324 kts 39°
2026-05-08 01:04 32.69932 -97.26261 12057 ft 321 kts 39°
2026-05-08 01:04 32.71536 -97.24418 12054 ft 320 kts 39°
2026-05-08 01:05 32.73140 -97.22581 12054 ft 320 kts 39°
2026-05-08 01:05 32.74737 -97.20748 12053 ft 316 kts 39°
2026-05-08 01:05 32.76280 -97.18966 12053 ft 302 kts 39°
2026-05-08 01:05 32.77757 -97.17254 12053 ft 293 kts 38°
2026-05-08 01:06 32.79365 -97.15898 12049 ft 275 kts 10°
2026-05-08 01:06 32.81167 -97.15711 12048 ft 252 kts 338°
2026-05-08 01:06 32.82761 -97.16436 12052 ft 245 kts 329°
2026-05-08 01:06 32.84443 -97.16961 12052 ft 257 kts 346°
2026-05-08 01:07 32.86233 -97.17123 12048 ft 259 kts 348°
2026-05-08 01:07 32.88049 -97.17152 12021 ft 262 kts 352°
2026-05-08 01:07 32.89851 -97.17113 11824 ft 258 kts 353°
2026-05-08 01:07 32.91634 -97.17066 11572 ft 256 kts 352°
2026-05-08 01:08 32.93410 -97.17020 11294 ft 254 kts 353°
2026-05-08 01:08 32.95171 -97.16992 11002 ft 253 kts 353°
2026-05-08 01:08 32.96929 -97.16985 10736 ft 251 kts 353°
2026-05-08 01:08 32.98675 -97.17001 10442 ft 250 kts 353°
2026-05-08 01:09 33.00411 -97.17036 10146 ft 249 kts 353°
2026-05-08 01:09 33.02138 -97.17092 9841 ft 248 kts 353°
2026-05-08 01:09 33.03837 -97.17168 9539 ft 247 kts 353°
2026-05-08 01:09 33.05547 -97.17265 9221 ft 245 kts 353°
2026-05-08 01:10 33.07249 -97.17382 8909 ft 244 kts 353°
2026-05-08 01:10 33.08942 -97.17518 8591 ft 243 kts 353°
2026-05-08 01:10 33.10628 -97.17667 8280 ft 242 kts 353°
2026-05-08 01:10 33.12300 -97.17822 7974 ft 240 kts 353°
2026-05-08 01:11 33.13960 -97.17987 7658 ft 238 kts 353°
2026-05-08 01:11 33.15609 -97.18163 7339 ft 237 kts 353°
2026-05-08 01:11 33.17248 -97.18348 7028 ft 236 kts 353°
2026-05-08 01:11 33.18876 -97.18540 6717 ft 235 kts 353°
2026-05-08 01:12 33.20498 -97.18745 6408 ft 233 kts 353°
2026-05-08 01:12 33.22106 -97.18958 6098 ft 232 kts 353°
2026-05-08 01:12 33.23704 -97.19176 5818 ft 231 kts 353°
2026-05-08 01:12 33.25292 -97.19401 5508 ft 229 kts 353°
2026-05-08 01:13 33.26878 -97.19627 5202 ft 229 kts 353°
2026-05-08 01:13 33.28449 -97.19857 4889 ft 228 kts 353°
2026-05-08 01:13 33.30017 -97.20086 4583 ft 226 kts 353°
2026-05-08 01:13 33.31576 -97.20319 4271 ft 225 kts 353°
2026-05-08 01:14 33.33129 -97.20553 4040 ft 223 kts 353°
2026-05-08 01:14 33.34671 -97.20789 4010 ft 225 kts 353°
2026-05-08 01:14 33.36225 -97.21026 4003 ft 225 kts 353°
2026-05-08 01:14 33.37778 -97.21263 4017 ft 225 kts 353°
2026-05-08 01:15 33.39333 -97.21500 4019 ft 225 kts 353°
2026-05-08 01:15 33.40890 -97.21737 4018 ft 226 kts 353°
2026-05-08 01:15 33.42444 -97.21700 4015 ft 225 kts 18°
2026-05-08 01:15 33.43721 -97.20716 4019 ft 224 kts 51°
2026-05-08 01:16 33.44340 -97.19029 4020 ft 225 kts 83°
2026-05-08 01:16 33.44362 -97.17156 4017 ft 226 kts 100°
2026-05-08 01:16 33.43710 -97.15480 4019 ft 225 kts 132°
2026-05-08 01:16 33.42561 -97.14199 4021 ft 227 kts 140°
2026-05-08 01:17 33.41337 -97.13011 4017 ft 226 kts 141°
2026-05-08 01:17 33.40102 -97.11837 4018 ft 227 kts 141°
2026-05-08 01:17 33.38864 -97.10666 4018 ft 227 kts 141°
2026-05-08 01:17 33.37625 -97.09495 4019 ft 227 kts 141°
2026-05-08 01:18 33.36382 -97.08322 4018 ft 227 kts 141°
2026-05-08 01:18 33.35138 -97.07151 4019 ft 227 kts 141°
2026-05-08 01:18 33.33898 -97.05983 4014 ft 227 kts 141°
2026-05-08 01:18 33.32656 -97.04812 4011 ft 228 kts 142°
2026-05-08 01:19 33.31347 -97.03764 4010 ft 226 kts 160°
2026-05-08 01:19 33.29816 -97.03344 4010 ft 227 kts 178°
2026-05-08 01:19 33.28285 -97.03539 4031 ft 213 kts 190°
2026-05-08 01:19 33.26882 -97.03830 4029 ft 199 kts 190°
2026-05-08 01:20 33.25537 -97.04113 4012 ft 195 kts 190°
2026-05-08 01:20 33.24201 -97.04396 4015 ft 195 kts 190°
2026-05-08 01:20 33.22867 -97.04679 4011 ft 195 kts 190°
2026-05-08 01:20 33.21543 -97.05018 4008 ft 195 kts 192°
2026-05-08 01:21 33.20218 -97.05237 4008 ft 195 kts 184°
2026-05-08 01:21 33.18865 -97.05306 3998 ft 195 kts 181°
2026-05-08 01:21 33.17512 -97.05327 4006 ft 195 kts 180°
2026-05-08 01:21 33.16157 -97.05337 4008 ft 194 kts 180°
2026-05-08 01:22 33.14805 -97.05346 4012 ft 194 kts 180°
2026-05-08 01:22 33.13449 -97.05353 4007 ft 195 kts 180°
2026-05-08 01:22 33.12095 -97.05359 4009 ft 195 kts 180°
2026-05-08 01:22 33.10741 -97.05366 4010 ft 194 kts 180°
2026-05-08 01:23 33.09388 -97.05373 3983 ft 195 kts 180°
2026-05-08 01:23 33.08030 -97.05380 3791 ft 195 kts 180°
2026-05-08 01:23 33.06683 -97.05386 3554 ft 193 kts 180°
2026-05-08 01:23 33.05343 -97.05394 3303 ft 192 kts 180°
2026-05-08 01:24 33.04006 -97.05400 3046 ft 192 kts 180°
2026-05-08 01:24 33.02675 -97.05408 2791 ft 191 kts 180°
2026-05-08 01:24 33.01351 -97.05413 2533 ft 190 kts 179°
2026-05-08 01:24 33.00039 -97.05419 2299 ft 188 kts 180°
2026-05-08 01:25 32.98747 -97.05427 2041 ft 181 kts 180°
2026-05-08 01:25 32.97525 -97.05434 1804 ft 170 kts 180°
2026-05-08 01:25 32.96398 -97.05440 1617 ft 158 kts 180°
2026-05-08 01:25 32.95352 -97.05445 1370 ft 145 kts 180°
2026-05-08 01:26 32.94368 -97.05450 1174 ft 140 kts 181°
2026-05-08 01:26 32.93399 -97.05455 1008 ft 139 kts 181°
2026-05-08 01:26 32.92440 -97.05461 823 ft 138 kts 180°
2026-05-08 01:26 32.91486 -97.05463 638 ft 137 kts 180°
2026-05-08 01:27 32.90631 -97.05468 613 ft 100 kts 180°
2026-05-08 01:27 32.90113 -97.05470 604 ft 52 kts 180°
2026-05-08 01:27 32.89806 -97.05470 607 ft 29 kts 180°
2026-05-08 01:27 32.89625 -97.05426 614 ft 27 kts 159°
2026-05-08 01:28 32.89489 -97.05339 604 ft 21 kts 150°
2026-05-08 01:28 32.89384 -97.05279 599 ft 8 kts 181°
2026-05-08 01:28 32.89332 -97.05280 598 ft 8 kts 180°
2026-05-08 01:28 32.89216 -97.05286 597 ft 28 kts 183°
2026-05-08 01:29 32.89085 -97.05281 592 ft 15 kts 178°
2026-05-08 01:29 32.88992 -97.05280 590 ft 16 kts 180°
2026-05-08 01:29 32.88846 -97.05280 590 ft 23 kts 180°
2026-05-08 01:29 32.88684 -97.05282 590 ft 20 kts 180°
2026-05-08 01:30 32.88642 -97.05281 589 ft 0 kts 179°
2026-05-08 01:30 32.88599 -97.05284 590 ft 14 kts 183°
2026-05-08 01:30 32.88514 -97.05257 590 ft 8 kts 119°
2026-05-08 01:30 32.88507 -97.05190 589 ft 11 kts 91°
2026-05-08 01:31 32.88505 -97.05030 590 ft 24 kts 92°
2026-05-08 01:31 32.88504 -97.04864 589 ft 18 kts 89°
2026-05-08 01:31 32.88504 -97.04700 587 ft 21 kts 90°
2026-05-08 01:31 32.88503 -97.04521 590 ft 22 kts 91°
2026-05-08 01:32 32.88502 -97.04461 592 ft 21 kts 90°
2026-05-08 01:32 32.88502 -97.04250 600 ft 19 kts 91°
2026-05-08 01:32 32.88500 -97.04091 601 ft 20 kts 90°
2026-05-08 01:32 32.88500 -97.03922 597 ft 17 kts 88°
2026-05-08 01:33 32.88500 -97.03844 594 ft 16 kts 91°
2026-05-08 01:33 32.88501 -97.03619 582 ft 23 kts 92°
2026-05-08 01:33 32.88500 -97.03527 580 ft 9 kts 90°
2026-05-08 01:33 32.88532 -97.03488 583 ft 6 kts
2026-05-08 01:34 32.88577 -97.03489 583 ft 8 kts 360°
2026-05-08 01:34 32.88603 -97.03539 584 ft 10 kts 278°
2026-05-08 01:34 32.88656 -97.03562 584 ft 9 kts
2026-05-08 01:34 32.88722 -97.03586 584 ft 10 kts 336°
2026-05-08 01:35 32.88772 -97.03577 584 ft 9 kts 38°
2026-05-08 01:35 32.88824 -97.03527 584 ft 11 kts 35°
2026-05-08 01:35 32.88923 -97.03472 584 ft 13 kts 22°
2026-05-08 01:35 32.88933 -97.03467 584 ft 0 kts 23°
2026-05-08 01:36 32.88938 -97.03470 584 ft 1 kts 337°
2026-05-08 01:36 32.88938 -97.03477 584 ft 2 kts 281°
2026-05-08 01:36 32.88940 -97.03501 584 ft 4 kts 279°
2026-05-08 01:36 32.88948 -97.03529 584 ft 0 kts 290°
2026-05-08 01:37 32.88949 -97.03534 584 ft 0 kts 290°